Hourly Data Report for December 28, 2019

CARBERRY CS
MANITOBA
Current Station Operator: ECCC - MSC

49°54'20.900" N
99°21'26.800" W
383.50 m
5010547
71170
WZE

Download Data

Hourly Data (December 2019)
Hourly Data Report for December 28, 2019
TIME
LST
Temp Definition
°C
Dew Point Definition
°C
Rel Hum Definition
%
Precip. Amount Definition
mm

Wind Dir Definition
10's deg

Wind Spd Definition
km/h
Visibility Definition
km
Stn Press Definition
kPa
Hmdx Definition


Wind Chill Definition


Weather Definition


00:00 -7.1 -10.8 75 0.0 25 21   96.63   -14 LegendNANA
01:00 -8.5 -12.0 76 0.0 25 12   96.69   -14 LegendNANA
02:00 -9.7 -12.7 79 0.0 25 12   96.75   -16 LegendNANA
03:00 -11.9 -13.8 86 0.0 26 9   96.80   -17 LegendNANA
04:00 -11.5 -14.0 82 0.0 25 12   96.79   -18 LegendNANA
05:00 -12.7 -14.8 84 0.0 25 10   96.83   -18 LegendNANA
06:00 -12.9 -14.8 86 0.0 24 9   96.83   -18 LegendNANA
07:00 -13.6 -15.4 86 0.0 25 13   96.91   -21 LegendNANA
08:00 -15.5 -17.6 84 0.0 27 12   96.92   -23 LegendNANA
09:00 -16.0 -17.9 86 0.0 20 6   97.00   -20 LegendNANA
10:00 -14.4 -16.8 82 0.0 21 6   97.09   -19 LegendNANA
11:00 -14.6 -18.0 76 0.0 26 8   97.12   -20 LegendNANA
12:00 -12.7 -16.3 75 0.0 31 6   97.09   -17 LegendNANA
13:00 -12.0 -16.0 72 0.0 0 1   97.04   -13 LegendNANA
14:00 -11.0 -15.7 68 0.0   0   97.06     LegendNANA
15:00 -9.6 -14.5 67 0.0 26 3   97.10   -11 LegendNANA
16:00 -10.0 -14.0 72 0.0 36 8   97.18   -14 LegendNANA
17:00 -10.2 -13.4 78 0.0 3 6   97.22   -14 LegendNANA
18:00 -11.2 -13.3 85 0.0 1 7   97.22   -15 LegendNANA
19:00 -11.7 -13.2 89 0.0 36 7   97.28   -16 LegendNANA
20:00 -12.0 -13.6 87 0.0 1 9   97.30   -17 LegendNANA
21:00 -12.6 -14.9 83 0.0 2 8   97.29   -18 LegendNANA
22:00 -10.7 -13.7 79 0.0 2 13   97.31   -17 LegendNANA
23:00 -12.9 -15.3 82 0.0 35 12   97.32   -19 LegendNANA

Notes on Data Quality.

Legend

  • E = Estimated
  • M = Missing
  • NA = Not Available*
  • [empty] = Indicates an unobserved value
Date modified: